Wind_Speed
25 23 23 22 21 20 20 21 21 19 21 22 22 23 22 22 22 21 22 22 23 22 21 21 21 21 21 21 22 22 22 23 23 23 23 23 23 24 23 24 24 24 25 25
28 26 26 25 24 22 22 22 23 22 22 23 23 25 25 25 24 22 22 23 24 24 23 23 23 23 23 23 24 24 24 24 25 25 25 25 25 26 26 26 27 27 27 27
30 29 29 28 25 25 24 23 24 25 25 26 25 26 26 27 27 26 25 24 25 25 24 23 25 24 25 25 25 26 26 26 27 27 27 27 28 28 29 29 29 29 29 30
30 29 31 29 27 28 27 27 27 28 28 28 28 27 29 28 28 27 27 27 27 27 25 25 26 25 25 26 27 27 28 28 28 29 29 29 30 30 31 32 32 32 31 32
30 31 31 29 28 27 28 30 29 30 31 31 30 29 30 30 29 28 29 29 29 29 29 29 28 29 28 29 29 29 30 30 30 30 31 31 31 32 33 34 34 34 33 34
31 31 31 30 29 27 28 31 32 32 32 34 32 30 32 32 31 30 30 31 32 31 31 30 30 31 30 30 31 31 31 31 31 31 32 33 33 34 34 35 35 36 36 36
32 32 31 29 28 28 29 32 32 32 33 34 33 33 34 35 33 32 33 33 33 33 33 32 32 31 31 31 32 32 32 32 32 33 33 33 34 35 36 37 37 37 38 38
34 34 34 31 30 31 32 31 33 33 33 34 35 35 36 35 34 34 34 34 34 34 34 34 33 33 32 32 32 32 32 33 33 34 34 35 35 37 38 38 38 39 39 38
34 35 35 33 33 33 33 33 34 34 34 35 35 35 37 36 35 35 35 35 34 34 34 33 33 33 33 33 33 33 33 33 34 35 36 37 37 39 39 40 40 39 39 39
34 35 36 36 36 36 36 35 35 35 35 34 35 36 36 36 36 35 35 34 35 35 34 34 33 33 34 34 34 34 34 34 34 36 36 37 39 39 40 40 40 39 38 39
37 37 37 37 36 37 37 35 36 35 35 36 36 36 36 37 36 36 35 35 35 35 35 35 34 34 35 35 35 36 36 36 37 37 37 38 38 38 40 41 40 38 38 39
37 36 37 37 37 36 36 35 35 36 35 35 36 36 36 36 36 36 36 36 36 36 35 35 35 36 36 36 36 37 37 37 38 38 39 40 40 40 40 41 39 38 39 40
37 37 37 37 37 36 36 35 35 35 35 35 35 36 36 36 36 36 36 36 36 36 36 36 36 37 37 37 37 37 37 38 38 38 39 39 39 39 40 39 38 38 39 39
36 36 36 37 36 36 37 36 36 36 36 36 35 36 37 37 36 36 36 36 36 37 37 37 37 37 37 37 38 37 37 38 38 38 39 39 40 40 40 39 39 38 38 39
37 37 37 37 37 37 37 36 36 36 36 36 36 36 37 37 36 35 35 36 36 37 38 38 37 37 37 37 37 37 38 38 38 39 39 39 39 40 40 39 39 38 38 37
37 37 37 37 38 37 37 36 36 36 36 36 36 36 36 35 35 36 36 36 36 37 38 38 37 37 37 37 37 37 37 37 38 39 40 39 38 39 40 39 38 37 37 36
35 35 35 36 36 36 36 36 36 36 35 36 35 35 35 35 34 34 34 36 36 37 37 37 37 37 38 38 37 37 37 38 38 39 39 38 39 39 39 39 38 37 35 34
34 34 35 35 35 35 36 35 35 36 36 36 36 36 35 33 33 33 34 34 34 35 35 35 35 36 36 36 37 37 38 38 37 38 38 38 37 37 37 38 38 36 34 33
33 33 34 34 34 35 35 35 35 36 36 35 34 33 33 33 32 32 32 33 33 34 33 33 34 35 35 35 34 35 36 35 35 36 36 36 37 37 36 35 35 34 33 32
32 33 33 33 32 32 33 33 33 34 35 34 33 31 32 32 33 32 32 32 32 31 30 31 32 33 33 33 33 33 32 33 34 34 34 34 34 33 33 32 32 32 31 32
28 29 30 31 31 31 32 32 32 33 32 32 32 31 31 31 31 31 30 30 29 28 28 29 29 30 31 32 32 32 32 31 32 33 33 32 31 31 31 31 30 30 30 30
26 28 28 29 29 30 30 30 30 29 29 29 29 29 29 28 28 28 29 28 26 26 27 27 27 27 28 29 30 30 29 30 30 30 30 29 29 29 29 28 28 29 29 29
25 26 27 27 27 27 27 27 27 26 26 26 26 26 26 25 25 25 25 25 24 24 25 25 25 25 25 26 26 27 27 28 29 28 27 26 27 27 26 26 26 26 27 27
22 23 23 23 23 23 23 23 24 24 24 23 23 24 24 24 24 23 23 23 23 23 24 24 24 24 24 24 25 25 26 26 26 26 26 25 26 26 25 25 25 24 24 24
19 20 21 21 22 21 21 20 21 21 22 22 22 23 23 23 23 23 22 21 21 21 22 22 22 23 23 23 24 24 23 23 24 24 25 25 26 25 25 24 23 23 23 23
18 18 17 18 19 19 17 18 19 19 19 20 21 21 22 22 22 21 20 20 20 20 21 21 21 21 21 22 22 22 22 22 22 22 23 23 24 23 23 23 23 23 23 23
16 15 15 15 15 16 16 16 17 17 17 17 18 19 20 20 19 19 18 18 18 19 19 19 19 19 20 21 21 22 22 22 22 22 22 22 23 22 22 22 22 22 23 23
Wind_Direction
245 244 245 249 250 248 250 252 256 259 263 265 272 274 276 278 277 277 278 279 282 284 284 282 282 285 288 291 293 295 297 299 301 302 303 304 305 306 307 308 309 311 310 309
246 247 249 251 252 247 246 252 258 256 261 267 270 274 273 274 273 275 277 279 283 283 281 278 280 283 286 288 290 291 293 295 297 298 299 300 301 302 304 305 305 306 306 307
248 248 249 248 249 254 254 251 254 256 257 261 266 270 273 273 274 275 276 279 281 281 279 276 276 277 281 284 286 288 290 292 293 294 295 296 298 299 300 302 302 303 303 304
251 251 249 250 249 250 253 254 252 255 257 259 263 268 270 272 273 273 275 277 278 280 280 280 280 280 282 283 285 287 288 289 290 292 293 295 297 297 298 297 298 300 301 302
251 253 255 254 251 251 254 253 253 255 258 259 261 263 267 269 269 271 273 275 277 279 280 280 280 280 283 284 284 285 288 289 290 291 293 294 296 296 298 299 298 299 300 300
251 253 254 255 255 253 253 255 254 255 258 259 259 259 263 267 268 270 273 275 277 280 282 281 281 281 283 284 285 286 287 288 289 290 291 292 294 295 298 299 298 298 298 298
250 251 254 257 257 256 255 256 258 258 259 260 260 260 263 266 268 270 273 275 277 280 281 281 282 283 284 285 285 285 286 287 287 289 291 292 294 296 297 298 298 299 298 298
250 250 252 254 255 257 258 259 261 262 262 263 263 264 265 266 268 271 272 273 276 277 278 279 281 282 283 284 285 285 285 286 287 289 290 291 293 294 296 296 297 298 298 298
250 251 252 252 254 257 260 261 261 262 263 263 264 265 266 267 268 269 270 272 274 275 275 277 279 281 282 284 284 285 285 285 286 288 288 289 291 293 293 294 296 297 297 298
249 251 252 253 252 254 257 260 263 265 264 266 266 265 266 267 268 269 271 272 273 274 274 275 277 280 282 283 284 284 286 286 287 288 288 289 292 293 294 295 296 296 296 298
250 251 252 253 256 258 260 262 262 263 265 265 267 268 268 268 269 270 271 271 272 272 274 276 277 278 280 281 282 284 285 287 287 288 291 293 294 293 294 295 294 294 295 297
249 251 252 254 257 259 261 260 261 262 266 267 267 268 270 270 271 272 271 271 271 272 275 276 277 278 280 281 282 283 285 286 287 289 290 292 293 292 293 294 293 294 296 297
250 251 253 256 257 259 260 260 262 265 268 269 269 270 271 270 271 272 272 272 272 273 274 276 277 278 280 281 281 282 284 285 286 287 289 292 292 292 292 292 292 294 296 297
252 253 254 256 257 258 260 261 263 265 267 269 271 272 271 272 272 272 273 273 273 273 274 275 276 277 278 281 282 284 285 285 285 286 289 291 292 293 293 293 294 295 295 296
253 254 254 255 256 258 260 261 262 265 268 270 270 272 273 273 273 273 274 274 274 273 274 275 276 277 278 280 281 283 283 284 285 287 288 290 291 293 294 293 294 295 295 296
252 253 255 256 256 259 260 260 262 265 268 269 270 272 273 275 275 274 274 273 274 273 274 274 275 278 279 279 280 281 282 284 286 287 289 289 291 293 293 294 293 294 295 295
252 252 254 256 257 258 260 262 263 264 267 268 270 272 274 275 275 275 274 274 274 273 274 273 274 276 278 280 281 281 282 284 285 286 288 289 291 292 293 294 295 295 295 295
253 253 254 256 257 259 260 262 264 265 267 269 270 272 272 273 274 275 275 276 277 277 277 276 275 276 278 281 281 282 284 286 287 288 289 290 292 293 294 294 295 295 295 294
254 254 255 256 258 259 261 262 264 265 267 267 268 270 271 273 274 275 276 278 279 279 279 278 277 278 280 282 284 284 283 285 288 288 290 291 292 292 293 293 294 295 295 296
255 255 255 256 257 260 262 263 264 264 266 267 268 270 271 271 272 273 275 277 279 280 281 281 281 280 281 283 284 286 287 288 290 291 292 292 292 292 292 293 293 294 296 296
256 256 256 257 258 259 261 263 265 265 265 267 267 268 270 271 272 273 274 276 279 280 282 283 283 282 282 283 285 287 288 289 291 292 293 294 295 294 294 294 294 294 295 295
254 256 257 257 258 260 261 262 264 266 267 268 268 270 272 274 274 275 274 276 279 280 282 284 285 285 285 285 286 288 289 290 292 293 294 295 295 296 296 295 295 295 294 294
255 257 257 258 258 260 260 260 262 265 266 268 269 271 273 274 274 275 276 276 279 281 284 286 287 288 289 289 289 289 291 292 293 294 295 295 295 295 295 295 296 296 296 298
258 260 259 257 256 258 259 258 259 262 264 267 271 272 273 273 273 276 280 281 282 284 286 287 288 289 289 292 293 293 293 294 295 295 296 296 296 297 296 296 298 299 299 300
263 262 256 255 257 260 259 256 257 260 263 265 268 271 271 272 273 276 279 281 282 285 285 285 287 289 291 293 294 296 297 298 297 295 296 297 298 297 296 297 299 301 302 303
264 264 261 257 257 257 256 257 258 261 264 267 268 269 270 271 273 277 279 281 283 283 285 287 289 292 293 295 297 297 297 299 300 300 299 298 299 300 298 299 302 304 304 304
260 259 257 256 256 255 255 256 259 262 265 269 272 273 273 273 274 276 278 280 282 284 284 285 288 291 294 297 299 300 301 302 303 303 303 303 303 302 301 302 304 305 305 305
Height
5891 5895 5897 5898 5899 5901 5902 5903 5904 5905 5905 5904 5902 5901 5901 5901 5900 5899 5897 5897 5896 5896 5895 5894 5894 5893 5892 5891 5890 5889 5887 5886 5884 5883 5881 5880 5878 5875 5872 5871 5869 5866 5863 5860
5885 5888 5890 5891 5893 5894 5896 5897 5898 5899 5898 5896 5897 5897 5895 5895 5894 5893 5892 5892 5891 5891 5890 5889 5888 5888 5887 5886 5885 5884 5882 5880 5879 5877 5876 5874 5872 5870 5868 5866 5863 5861 5858 5855
5877 5881 5881 5883 5887 5889 5889 5890 5892 5892 5893 5891 5890 5890 5889 5889 5889 5888 5887 5887 5886 5885 5884 5883 5882 5881 5881 5880 5879 5878 5877 5875 5873 5871 5870 5868 5866 5864 5862 5860 5857 5854 5852 5849
5870 5873 5872 5878 5880 5881 5882 5883 5884 5884 5884 5884 5884 5883 5882 5882 5882 5882 5882 5881 5880 5878 5877 5876 5876 5874 5874 5873 5873 5871 5870 5868 5867 5865 5863 5861 5859 5857 5855 5852 5850 5847 5845 5842
5862 5863 5865 5869 5871 5872 5873 5873 5875 5876 5876 5877 5876 5876 5875 5874 5874 5875 5875 5874 5873 5873 5872 5871 5870 5869 5868 5867 5865 5864 5862 5861 5859 5857 5856 5854 5852 5849 5847 5844 5842 5840 5837 5834
5854 5855 5857 5861 5863 5863 5865 5864 5866 5867 5867 5867 5868 5868 5867 5866 5867 5867 5867 5866 5866 5865 5864 5864 5863 5861 5860 5859 5858 5856 5854 5853 5851 5849 5847 5845 5843 5841 5838 5836 5833 5830 5828 5825
5845 5847 5849 5852 5854 5855 5856 5856 5857 5857 5858 5858 5859 5859 5859 5859 5859 5859 5859 5858 5857 5857 5856 5855 5854 5853 5852 5851 5849 5848 5846 5844 5842 5841 5839 5837 5835 5832 5829 5826 5823 5821 5818 5815
5837 5839 5842 5843 5845 5846 5845 5846 5847 5848 5848 5849 5850 5850 5849 5849 5850 5850 5850 5849 5849 5848 5847 5846 5845 5844 5843 5842 5841 5839 5837 5835 5834 5831 5829 5827 5825 5822 5819 5816 5813 5811 5808 5805
5829 5832 5832 5834 5835 5836 5836 5837 5838 5839 5839 5840 5840 5840 5840 5840 5841 5841 5841 5840 5839 5838 5838 5837 5836 5835 5835 5833 5832 5830 5828 5826 5825 5822 5820 5817 5815 5812 5809 5806 5803 5800 5798 5794
5818 5820 5822 5824 5825 5827 5828 5828 5829 5830 5830 5829 5830 5831 5831 5831 5831 5831 5831 5831 5830 5829 5828 5828 5827 5826 5825 5824 5822 5820 5819 5817 5815 5813 5809 5807 5804 5801 5798 5795 5792 5790 5787 5784
5808 5811 5812 5814 5816 5817 5817 5818 5819 5820 5820 5820 5821 5821 5821 5821 5822 5821 5821 5821 5820 5818 5818 5818 5817 5816 5815 5814 5812 5811 5809 5807 5805 5802 5799 5797 5794 5790 5788 5785 5782 5779 5777 5774
5798 5801 5803 5805 5806 5807 5807 5809 5809 5811 5812 5811 5811 5811 5811 5811 5811 5811 5810 5810 5809 5808 5808 5807 5807 5806 5805 5804 5802 5800 5799 5797 5795 5792 5790 5787 5784 5781 5778 5775 5772 5769 5766 5763
5789 5791 5793 5795 5797 5798 5798 5799 5800 5801 5802 5801 5801 5801 5801 5801 5800 5800 5799 5799 5799 5798 5797 5797 5796 5795 5794 5793 5791 5790 5788 5786 5784 5782 5780 5777 5774 5771 5768 5765 5762 5759 5757 5753
5779 5782 5784 5785 5786 5787 5788 5789 5790 5791 5792 5792 5792 5791 5791 5790 5790 5790 5789 5788 5788 5787 5786 5786 5785 5784 5784 5782 5780 5778 5777 5775 5773 5771 5769 5767 5764 5761 5758 5755 5753 5750 5747 5743
5770 5772 5774 5775 5776 5778 5779 5780 5781 5781 5782 5782 5782 5781 5780 5780 5780 5779 5778 5778 5777 5776 5776 5775 5774 5773 5772 5771 5770 5768 5766 5764 5763 5761 5758 5756 5753 5751 5747 5744 5742 5739 5736 5733
5760 5762 5764 5766 5767 5768 5769 5770 5771 5771 5771 5772 5772 5771 5770 5770 5769 5769 5768 5767 5766 5766 5765 5764 5764 5762 5761 5760 5759 5757 5755 5754 5752 5750 5748 5745 5743 5740 5738 5735 5732 5729 5725 5723
5750 5752 5754 5756 5757 5758 5759 5760 5760 5761 5761 5762 5762 5761 5760 5760 5759 5758 5757 5756 5756 5755 5754 5754 5752 5751 5749 5748 5747 5746 5745 5743 5741 5739 5736 5735 5733 5730 5727 5725 5722 5719 5716 5713
5740 5742 5744 5746 5747 5748 5749 5750 5750 5750 5752 5752 5752 5751 5751 5750 5749 5748 5747 5746 5746 5745 5744 5743 5741 5740 5739 5738 5737 5736 5734 5733 5731 5729 5727 5725 5723 5720 5718 5715 5712 5709 5707 5704
5731 5733 5735 5736 5737 5738 5740 5740 5741 5741 5741 5741 5741 5740 5741 5740 5740 5739 5738 5737 5736 5735 5734 5733 5732 5731 5730 5729 5728 5727 5726 5724 5722 5720 5718 5715 5713 5711 5709 5706 5703 5701 5698 5695
5722 5723 5725 5726 5728 5729 5730 5730 5730 5731 5731 5731 5731 5731 5731 5731 5730 5729 5728 5727 5726 5726 5725 5724 5723 5723 5722 5720 5719 5718 5717 5715 5713 5711 5709 5707 5705 5702 5700 5697 5695 5692 5689 5687
5713 5714 5715 5717 5718 5719 5720 5720 5720 5721 5721 5721 5722 5722 5722 5721 5721 5720 5720 5719 5719 5718 5717 5717 5716 5715 5714 5712 5711 5710 5709 5707 5705 5703 5701 5698 5696 5694 5691 5689 5687 5684 5681 5679
5705 5707 5708 5709 5710 5710 5710 5711 5711 5711 5712 5712 5712 5713 5713 5712 5712 5712 5711 5711 5711 5711 5710 5709 5709 5707 5706 5705 5704 5702 5701 5699 5697 5695 5693 5691 5688 5686 5683 5681 5678 5676 5674 5672
5698 5699 5699 5700 5701 5701 5701 5702 5703 5703 5703 5704 5704 5705 5705 5705 5704 5704 5704 5704 5704 5704 5703 5703 5702 5700 5699 5698 5696 5695 5693 5691 5689 5687 5685 5683 5681 5678 5676 5674 5671 5669 5666 5664
5691 5691 5692 5692 5693 5694 5693 5694 5695 5695 5696 5696 5697 5697 5698 5698 5698 5698 5697 5698 5698 5698 5698 5697 5696 5695 5693 5692 5690 5688 5687 5685 5682 5680 5678 5676 5674 5671 5669 5667 5664 5662 5660 5657
5685 5684 5684 5685 5686 5686 5687 5687 5688 5689 5690 5690 5691 5691 5692 5692 5692 5692 5692 5692 5692 5692 5692 5691 5690 5689 5687 5686 5684 5682 5680 5678 5676 5674 5672 5669 5667 5665 5663 5660 5658 5656 5653 5651
5679 5678 5679 5679 5680 5680 5680 5682 5683 5684 5685 5685 5686 5686 5686 5686 5686 5686 5686 5686 5687 5687 5686 5686 5684 5683 5681 5680 5678 5676 5674 5672 5670 5667 5665 5663 5661 5658 5656 5654 5652 5650 5648 5645
5674 5674 5674 5675 5675 5676 5677 5678 5679 5680 5680 5681 5681 5681 5681 5681 5681 5681 5681 5682 5682 5681 5681 5680 5679 5677 5676 5674 5673 5671 5669 5667 5664 5662 5659 5657 5655 5652 5650 5648 5646 5644 5642 5639